This is the latest recevied weather packets stored in our database for station/object DH1FR-13. If no packets are shown the sender has not sent any weather packets the latest 1 day(s).
| Time | Temp. | Humidity | Pressure | Rain* | Wind** | Luminosity | Snow |
|---|---|---|---|---|---|---|---|
| 1777986601 | 20° C | 61% | 1010.6 hPa | 0 mm | 0 m/s | - | - |
| 1777986000 | 20° C | 60% | 1010.5 hPa | 0 mm | 0 m/s | - | - |
| 1777985401 | 19.44° C | 62% | 1011 hPa | 0 mm | 0 m/s | - | - |
| 1777984800 | 20° C | 63% | 1010.9 hPa | 0 mm | 0 m/s | - | - |
| 1777984200 | 19.44° C | 62% | 1011.2 hPa | 0 mm | 0 m/s | - | - |
| 1777983601 | 18.89° C | 64% | 1011.1 hPa | 0 mm | 0 m/s | - | - |
| 1777983001 | 18.89° C | 65% | 1011.4 hPa | 0 mm | 0 m/s | - | - |
| 1777982401 | 18.89° C | 64% | 1011.4 hPa | 0 mm | 0 m/s | - | - |
| 1777981801 | 18.89° C | 67% | 1011.6 hPa | 0 mm | 0 m/s | - | - |
| 1777981200 | 18.89° C | 67% | 1011.6 hPa | 0 mm | 0 m/s | - | - |
| 1777980601 | 18.89° C | 65% | 1011.5 hPa | 0 mm | 0 m/s | - | - |
| 1777980001 | 19.44° C | 64% | 1011.6 hPa | 0 mm | 0 m/s | - | - |
| 1777979401 | 18.89° C | 67% | 1011.5 hPa | 0 mm | 0 m/s | - | - |
| 1777978801 | 19.44° C | 67% | 1011.6 hPa | 0 mm | 0 m/s | - | - |
| 1777978200 | 20° C | 66% | 1011.6 hPa | 0 mm | 0 m/s | - | - |
| 1777977601 | 20.56° C | 64% | 1011.9 hPa | 0 mm | 0 m/s | - | - |
| 1777976400 | 20° C | 66% | 1011.8 hPa | 0 mm | 0 m/s | - | - |
| 1777975801 | 18.89° C | 71% | 1012 hPa | 0 mm | 0 m/s | - | - |
| 1777975201 | 19.44° C | 72% | 1012.4 hPa | 0 mm | 0 m/s | - | - |
| 1777974601 | 19.44° C | 74% | 1012.1 hPa | 0 mm | 0 m/s | - | - |
| 1777974000 | 18.33° C | 73% | 1012.3 hPa | 0 mm | 0 m/s | - | - |
| 1777973401 | 18.89° C | 76% | 1012.5 hPa | 0 mm | 0 m/s | - | - |
| 1777972801 | 17.78° C | 80% | 1012.5 hPa | 0 mm | 0 m/s | - | - |
| 1777972201 | 16.67° C | 79% | 1012.4 hPa | 0 mm | 0 m/s | - | - |
| 1777971600 | 16.11° C | 84% | 1012.6 hPa | 0 mm | 0 m/s | - | - |
* Rain latest hour (hover to see other rain measurements)
** Current wind speed in m/s (hover to see current wind gust speed)